Hourly Weather Olekminsk

Today, 10 July, Friday

Time Temperature Precipitation Wind Pressure Humidity
00:00 +16°C° 0 mm 3 mps 731 mmHg 97%
01:00 +16°C° 0 mm 2 mps 731 mmHg 97%
02:00 +16°C° 0 mm 2 mps 731 mmHg 97%
03:00 +16°C° 0 mm 2 mps 731 mmHg 97%
04:00 +16°C° 0 mm 2 mps 732 mmHg 96%
05:00 +16°C° 0 mm 1 mps 732 mmHg 96%
06:00 +19°C° 0 mm 1 mps 733 mmHg 90%
07:00 +20°C° 0 mm 1 mps 733 mmHg 85%
08:00 +22°C° 0 mm 1 mps 733 mmHg 79%
09:00 +23°C° 0 mm 1 mps 733 mmHg 71%
10:00 +25°C° 0 mm 1 mps 734 mmHg 62%
11:00 +27°C° 0 mm 2 mps 734 mmHg 54%
12:00 +27°C° 0 mm 2 mps 733 mmHg 52%
13:00 +28°C° 0 mm 2 mps 733 mmHg 50%
14:00 +29°C° 0 mm 3 mps 733 mmHg 47%
15:00 +29°C° 0 mm 3 mps 733 mmHg 48%
16:00 +29°C° 0 mm 3 mps 733 mmHg 49%
17:00 +29°C° 0 mm 3 mps 733 mmHg 49%
18:00 +27°C° 0 mm 3 mps 733 mmHg 56%
19:00 +26°C° 0 mm 3 mps 733 mmHg 64%
20:00 +24°C° 0 mm 3 mps 733 mmHg 71%
21:00 +22°C° 0 mm 3 mps 733 mmHg 76%
22:00 +20°C° 0 mm 2 mps 732 mmHg 82%
23:00 +19°C° 0 mm 2 mps 732 mmHg 87%

Tomorrow, 11 July, Saturday

Time Temperature Precipitation Wind Pressure Humidity
00:00 +19°C° 0.2 mm 1 mps 732 mmHg 89%
01:00 +19°C° 0.2 mm 1 mps 733 mmHg 90%
02:00 +17°C° 0.2 mm 0 mps 733 mmHg 92%
03:00 +17°C° 0.1 mm 0 mps 733 mmHg 91%
04:00 +18°C° 0.1 mm 0 mps 733 mmHg 90%
05:00 +18°C° 0.1 mm 0 mps 733 mmHg 89%
06:00 +20°C° 0 mm 0 mps 733 mmHg 81%
07:00 +22°C° 0 mm 0 mps 734 mmHg 73%
08:00 +26°C° 0 mm 1 mps 734 mmHg 66%
09:00 +28°C° 0 mm 1 mps 734 mmHg 59%
10:00 +30°C° 0 mm 1 mps 734 mmHg 53%
11:00 +32°C° 0 mm 1 mps 734 mmHg 47%
12:00 +33°C° 0 mm 1 mps 734 mmHg 44%
13:00 +34°C° 0 mm 1 mps 734 mmHg 41%
14:00 +36°C° 0 mm 2 mps 733 mmHg 38%
15:00 +36°C° 0 mm 2 mps 733 mmHg 36%
16:00 +37°C° 0 mm 2 mps 733 mmHg 35%
17:00 +37°C° 0 mm 2 mps 733 mmHg 34%
18:00 +35°C° 0 mm 2 mps 733 mmHg 40%
19:00 +32°C° 0 mm 2 mps 733 mmHg 47%
20:00 +30°C° 0 mm 1 mps 733 mmHg 53%
21:00 +28°C° 0 mm 1 mps 733 mmHg 58%
22:00 +26°C° 0 mm 1 mps 734 mmHg 63%
23:00 +25°C° 0 mm 1 mps 734 mmHg 68%

Day after tomorrow, 12 July, Sunday

Time Temperature Precipitation Wind Pressure Humidity
00:00 +24°C° 0 mm 1 mps 734 mmHg 72%
01:00 +23°C° 0 mm 1 mps 734 mmHg 76%
02:00 +22°C° 0 mm 1 mps 735 mmHg 81%
03:00 +23°C° 0 mm 1 mps 735 mmHg 80%
04:00 +23°C° 0 mm 1 mps 735 mmHg 78%
05:00 +24°C° 0 mm 1 mps 735 mmHg 77%
06:00 +24°C° 0 mm 0 mps 736 mmHg 69%
07:00 +26°C° 0 mm 0 mps 736 mmHg 61%
08:00 +28°C° 0 mm 0 mps 736 mmHg 53%
09:00 +32°C° 0 mm 1 mps 736 mmHg 47%
10:00 +34°C° 0 mm 1 mps 736 mmHg 42%
11:00 +35°C° 0 mm 1 mps 736 mmHg 37%
12:00 +37°C° 0 mm 2 mps 736 mmHg 33%
13:00 +38°C° 0 mm 2 mps 736 mmHg 29%
14:00 +39°C° 0 mm 3 mps 735 mmHg 25%
15:00 +38°C° 0 mm 3 mps 735 mmHg 25%
16:00 +38°C° 0 mm 3 mps 735 mmHg 25%
17:00 +38°C° 0 mm 3 mps 735 mmHg 25%
18:00 +36°C° 0 mm 2 mps 735 mmHg 32%
19:00 +32°C° 0 mm 2 mps 735 mmHg 39%
20:00 +30°C° 0 mm 1 mps 735 mmHg 46%
21:00 +28°C° 0 mm 1 mps 735 mmHg 48%
22:00 +27°C° 0 mm 1 mps 735 mmHg 50%
23:00 +25°C° 0 mm 1 mps 735 mmHg 52%

13 July, Monday

Time Temperature Precipitation Wind Pressure Humidity
00:00 +24°C° 0 mm 1 mps 735 mmHg 60%
01:00 +24°C° 0 mm 1 mps 735 mmHg 67%
02:00 +23°C° 0 mm 1 mps 735 mmHg 75%
03:00 +23°C° 0 mm 1 mps 735 mmHg 77%
04:00 +23°C° 0 mm 1 mps 736 mmHg 79%
05:00 +23°C° 0 mm 1 mps 736 mmHg 82%
06:00 +24°C° 0 mm 1 mps 736 mmHg 77%
07:00 +26°C° 0 mm 2 mps 736 mmHg 73%
08:00 +27°C° 0 mm 2 mps 737 mmHg 69%
09:00 +28°C° 0 mm 2 mps 737 mmHg 64%
10:00 +29°C° 0 mm 2 mps 737 mmHg 60%
11:00 +30°C° 0 mm 2 mps 737 mmHg 56%
12:00 +30°C° 0 mm 2 mps 737 mmHg 52%
13:00 +31°C° 0 mm 2 mps 737 mmHg 48%
14:00 +32°C° 0 mm 2 mps 737 mmHg 44%
15:00 +32°C° 0 mm 2 mps 737 mmHg 46%
16:00 +32°C° 0 mm 2 mps 737 mmHg 47%
17:00 +31°C° 0 mm 3 mps 737 mmHg 48%
18:00 +29°C° 0.2 mm 2 mps 737 mmHg 57%
19:00 +27°C° 0.2 mm 2 mps 737 mmHg 67%
20:00 +25°C° 0.2 mm 2 mps 737 mmHg 76%
21:00 +24°C° 0.9 mm 1 mps 737 mmHg 82%
22:00 +23°C° 0.9 mm 1 mps 737 mmHg 87%
23:00 +19°C° 0.9 mm 0 mps 737 mmHg 93%

14 July, Tuesday

Time Temperature Precipitation Wind Pressure Humidity
00:00 +19°C° 0 mm 0 mps 737 mmHg 93%
01:00 +18°C° 0 mm 0 mps 737 mmHg 93%
02:00 +18°C° 0 mm 0 mps 737 mmHg 94%
03:00 +18°C° 0 mm 0 mps 737 mmHg 93%
04:00 +20°C° 0 mm 1 mps 736 mmHg 92%
05:00 +21°C° 0 mm 1 mps 736 mmHg 91%
06:00 +22°C° 0 mm 1 mps 736 mmHg 85%
07:00 +24°C° 0 mm 1 mps 736 mmHg 78%
08:00 +25°C° 0 mm 1 mps 736 mmHg 72%
09:00 +27°C° 0 mm 1 mps 736 mmHg 65%
10:00 +29°C° 0 mm 1 mps 736 mmHg 57%
11:00 +31°C° 0 mm 1 mps 735 mmHg 50%
12:00 +31°C° 0 mm 1 mps 735 mmHg 48%
13:00 +32°C° 0 mm 1 mps 735 mmHg 45%
14:00 +33°C° 0 mm 1 mps 734 mmHg 43%
15:00 +32°C° 0.1 mm 2 mps 734 mmHg 46%
16:00 +32°C° 0.1 mm 2 mps 734 mmHg 48%
17:00 +31°C° 0.1 mm 2 mps 733 mmHg 51%
18:00 +29°C° 0.4 mm 2 mps 733 mmHg 61%
19:00 +27°C° 0.4 mm 1 mps 733 mmHg 71%
20:00 +25°C° 0.4 mm 1 mps 733 mmHg 82%
21:00 +24°C° 0 mm 1 mps 733 mmHg 84%
22:00 +23°C° 0 mm 1 mps 733 mmHg 87%
23:00 +22°C° 0 mm 1 mps 733 mmHg 89%

15 July, Wednesday

Time Temperature Precipitation Wind Pressure Humidity
00:00 +22°C° 0 mm 1 mps 733 mmHg 91%
01:00 +21°C° 0 mm 1 mps 733 mmHg 92%
02:00 +21°C° 0 mm 1 mps 732 mmHg 93%
03:00 +21°C° 0 mm 1 mps 732 mmHg 91%
04:00 +22°C° 0 mm 1 mps 732 mmHg 90%
05:00 +22°C° 0 mm 1 mps 732 mmHg 88%
06:00 +24°C° 0 mm 1 mps 732 mmHg 80%
07:00 +26°C° 0 mm 1 mps 732 mmHg 72%
08:00 +28°C° 0 mm 1 mps 732 mmHg 64%
09:00 +29°C° 0 mm 1 mps 732 mmHg 58%
10:00 +31°C° 0 mm 1 mps 732 mmHg 51%
11:00 +32°C° 0 mm 1 mps 731 mmHg 44%
12:00 +32°C° 0 mm 1 mps 731 mmHg 44%
13:00 +32°C° 0 mm 1 mps 731 mmHg 43%
14:00 +32°C° 0 mm 2 mps 730 mmHg 43%
15:00 +32°C° 0 mm 2 mps 730 mmHg 42%
16:00 +32°C° 0 mm 2 mps 730 mmHg 41%
17:00 +34°C° 0 mm 2 mps 730 mmHg 41%
18:00 +31°C° 0 mm 2 mps 730 mmHg 47%
19:00 +29°C° 0 mm 2 mps 730 mmHg 53%
20:00 +27°C° 0 mm 2 mps 729 mmHg 60%
21:00 +26°C° 0 mm 1 mps 729 mmHg 63%
22:00 +24°C° 0 mm 1 mps 729 mmHg 67%
23:00 +23°C° 0 mm 1 mps 729 mmHg 71%
Show more